#timestamp,LO_Frequency,Hit,Temp,Hum 
1487955615.2,286047081.0,N,0.0,0.0
1487955635.1,286047081.1,N,0.0,0.0
1487955636.0,286047081.1,N,0.0,0.0
1487955655.8,286047083.4,N,0.0,0.0
1487955675.6,286047083.0,N,0.0,0.0
1487955695.5,286047087.2,N,0.0,0.0
1487955715.3,286047088.5,N,0.0,0.0
1487955735.1,286047087.1,N,0.0,0.0
1487955755.9,286047085.0,N,0.0,0.0
1487955775.7,286047087.2,N,0.0,0.0
1487955795.5,286047085.9,N,0.0,0.0
1487955815.4,286047083.6,N,0.0,0.0
1487955835.2,286047083.8,N,0.0,0.0
1487955855.0,286047081.5,N,0.0,0.0
1487955855.9,286047081.5,N,0.0,0.0
1487955875.8,286047083.8,N,0.0,0.0
1487955895.6,286047084.4,N,0.0,0.0
1487955915.4,286047079.8,N,0.0,0.0
1487955935.2,286047087.2,N,0.0,0.0
1487955955.1,286047086.1,N,0.0,0.0
1487955956.0,286047086.1,N,0.0,0.0
1487955975.8,286047089.2,N,0.0,0.0
1487955995.6,286047088.4,N,0.0,0.0
1487956015.5,286047088.0,N,0.0,0.0
1487956035.3,286047088.7,N,0.0,0.0
1487956055.1,286047089.8,N,0.0,0.0
1487956075.9,286047089.5,N,0.0,0.0
1487956095.7,286047091.1,N,0.0,0.0
1487956115.5,286047095.9,N,0.0,0.0
1487956135.4,286047105.1,N,0.0,0.0
1487956155.2,286047109.8,N,0.0,0.0
1487956175.0,286047111.1,N,0.0,0.0
1487956175.9,286047111.1,N,0.0,0.0
1487956195.8,286047107.4,N,0.0,0.0
1487956215.6,286047104.4,N,0.0,0.0
1487956235.4,286047103.0,N,0.0,0.0
1487956255.3,286047099.1,N,0.0,0.0
1487956275.1,286047094.1,N,0.0,0.0
1487956276.0,286047094.1,N,0.0,0.0
1487956295.8,286047091.4,N,0.0,0.0
1487956315.7,286047088.9,N,0.0,0.0
1487956335.5,286047084.5,N,0.0,0.0
1487956355.3,286047082.8,N,0.0,0.0
1487956375.2,286047080.8,N,0.0,0.0
1487956395.9,286047080.4,N,0.0,0.0
1487956415.7,286047084.0,N,0.0,0.0
1487956435.6,286047083.1,N,0.0,0.0
1487956455.4,286047081.3,N,0.0,0.0
1487956475.2,286047081.4,N,0.0,0.0
1487956495.0,286047082.2,N,0.0,0.0
1487956496.0,286047082.2,N,0.0,0.0
1487956515.8,286047087.0,N,0.0,0.0
1487956535.6,286047085.9,N,0.0,0.0
1487956555.4,286047084.6,N,0.0,0.0
1487956575.3,286047083.1,N,0.0,0.0
1487956595.1,286047084.6,N,0.0,0.0
1487956615.8,286047088.0,N,0.0,0.0
1487956635.7,286047092.4,N,0.0,0.0
1487956655.5,286047091.0,N,0.0,0.0
1487956675.3,286047092.4,N,0.0,0.0
1487956695.2,286047097.7,N,0.0,0.0
1487956715.9,286047096.0,N,0.0,0.0
1487956735.7,286047098.3,N,0.0,0.0
1487956755.6,286047101.8,N,0.0,0.0
1487956775.4,286047105.1,N,0.0,0.0
1487956795.2,286047102.6,N,0.0,0.0
1487956815.1,286047103.8,N,0.0,0.0
1487956816.0,286047103.8,N,0.0,0.0
1487956835.8,286047105.7,N,0.0,0.0
1487956855.6,286047105.4,N,0.0,0.0
1487956875.5,286047107.2,N,0.0,0.0
1487956895.3,286047105.3,N,0.0,0.0
1487956915.1,286047106.5,N,0.0,0.0
1487956935.8,286047103.8,N,0.0,0.0
1487956955.7,286047104.0,N,0.0,0.0
1487956975.5,286047106.1,N,0.0,0.0
1487956995.3,286047106.5,N,0.0,0.0
1487957015.2,286047105.3,N,0.0,0.0
1487957035.0,286047108.0,N,0.0,0.0
1487957035.9,286047108.0,N,0.0,0.0
1487957055.7,286047110.0,N,0.0,0.0
1487957075.6,286047107.1,N,0.0,0.0
1487957095.4,286047107.7,N,0.0,0.0
1487957115.2,286047107.9,N,0.0,0.0
1487957135.1,286047108.0,N,0.0,0.0
1487957136.0,286047108.0,N,0.0,0.0
1487957155.8,286047111.0,N,0.0,0.0
1487957175.6,286047109.1,N,0.0,0.0
1487957195.5,286047108.9,N,0.0,0.0
1487957215.3,286047107.3,N,0.0,0.0
1487957235.1,286047109.4,N,0.0,0.0
1487957255.9,286047108.6,N,0.0,0.0
1487957275.7,286047111.4,N,0.0,0.0
1487957295.5,286047110.9,N,0.0,0.0
1487957315.4,286047114.8,N,0.0,0.0
1487957335.2,286047112.0,N,0.0,0.0
1487957355.0,286047114.2,N,0.0,0.0
1487957355.9,286047114.2,N,0.0,0.0
1487957375.8,286047113.0,N,0.0,0.0
1487957395.6,286047110.5,N,0.0,0.0
1487957415.4,286047112.7,N,0.0,0.0
1487957435.3,286047113.5,N,0.0,0.0
1487957455.1,286047115.1,N,0.0,0.0
1487957456.0,286047115.1,N,0.0,0.0
1487957475.8,286047113.4,N,0.0,0.0
1487957495.7,286047115.9,N,0.0,0.0
1487957515.5,286047117.0,N,0.0,0.0
1487957535.3,286047114.1,N,0.0,0.0
1487957555.2,286047113.9,N,0.0,0.0
1487957575.9,286047114.8,N,0.0,0.0
1487957595.7,286047113.7,N,0.0,0.0
1487957615.6,286047113.9,N,0.0,0.0
1487957635.4,286047115.7,Y,0.0,0.0
1487957655.2,286047033.2,N,0.0,0.0
1487957675.1,286047033.2,N,0.0,0.0
1487957676.0,286047033.2,N,0.0,0.0
1487957695.8,286047034.4,N,0.0,0.0
1487957715.6,286047025.9,N,0.0,0.0
1487957735.5,286047025.3,N,0.0,0.0
1487957755.3,286047051.3,N,0.0,0.0
1487957775.1,286047032.0,N,0.0,0.0
1487957795.9,286047032.6,N,0.0,0.0
1487957815.7,286047032.7,N,0.0,0.0
1487957835.5,286047032.2,N,0.0,0.0
1487957855.3,286047035.8,N,0.0,0.0
1487957875.2,286047037.5,N,0.0,0.0
1487957895.0,286047034.9,N,0.0,0.0
1487957895.9,286047034.9,N,0.0,0.0
1487957915.7,286047036.2,N,0.0,0.0
1487957935.6,286047034.9,N,0.0,0.0
1487957955.4,286047037.6,N,0.0,0.0
1487957975.2,286047036.6,N,0.0,0.0
1487957995.1,286047037.7,N,0.0,0.0
1487957996.0,286047037.7,N,0.0,0.0
1487958015.8,286047039.2,N,0.0,0.0
1487958035.6,286047039.1,N,0.0,0.0
1487958055.5,286047037.4,N,0.0,0.0
1487958075.3,286047039.9,N,0.0,0.0
1487958095.1,286047038.3,N,0.0,0.0
1487958115.9,286047038.0,N,0.0,0.0
1487958135.7,286047037.5,N,0.0,0.0
1487958155.5,286047039.1,N,0.0,0.0
1487958175.4,286047039.9,N,0.0,0.0
1487958195.2,286047041.1,N,0.0,0.0
1487958215.0,286047038.6,N,0.0,0.0
1487958215.9,286047038.6,N,0.0,0.0
1487958235.8,286047038.1,N,0.0,0.0
1487958255.6,286047041.0,N,0.0,0.0
1487958275.4,286047038.3,N,0.0,0.0
1487958295.3,286047038.2,N,0.0,0.0
1487958315.1,286047040.4,N,0.0,0.0
1487958316.0,286047040.4,N,0.0,0.0
1487958335.8,286047045.8,N,0.0,0.0
1487958355.7,286047044.9,N,0.0,0.0
1487958375.5,286047046.7,N,0.0,0.0
1487958395.3,286047047.6,N,0.0,0.0
1487958415.2,286047045.9,N,0.0,0.0
1487958435.9,286047045.2,N,0.0,0.0
1487958455.7,286047044.0,N,0.0,0.0
1487958475.5,286047042.8,N,0.0,0.0
1487958495.4,286047041.6,N,0.0,0.0
1487958515.2,286047043.7,N,0.0,0.0
1487958535.0,286047044.0,N,0.0,0.0
1487958535.9,286047044.0,N,0.0,0.0
1487958555.8,286047042.6,N,0.0,0.0
1487958575.6,286047042.3,N,0.0,0.0
1487958595.4,286047039.0,N,0.0,0.0
1487958615.3,286047039.1,N,0.0,0.0
1487958635.1,286047035.1,N,0.0,0.0
1487958655.8,286047036.2,N,0.0,0.0
1487958675.7,286047036.1,N,0.0,0.0
1487958695.5,286047033.6,N,0.0,0.0
1487958715.3,286047030.5,N,0.0,0.0
1487958735.2,286047026.1,N,0.0,0.0
1487958755.9,286047018.9,N,0.0,0.0
1487958775.7,286047017.9,N,0.0,0.0
1487958795.6,286047014.5,N,0.0,0.0
1487958815.4,286047016.4,N,0.0,0.0
1487958835.2,286047015.7,N,0.0,0.0
1487958855.1,286047020.9,N,0.0,0.0
1487958856.0,286047020.9,N,0.0,0.0
1487958875.8,286047022.6,N,0.0,0.0
1487958895.6,286047027.7,N,0.0,0.0
1487958915.5,286047030.2,N,0.0,0.0
1487958935.3,286047041.2,N,0.0,0.0
1487958955.1,286047045.5,N,0.0,0.0
1487958975.8,286047057.7,N,0.0,0.0
1487958995.7,286047058.9,N,0.0,0.0
1487959015.5,286047067.5,N,0.0,0.0
1487959035.3,286047073.0,N,0.0,0.0
1487959055.2,286047068.9,N,0.0,0.0
1487959075.0,286047066.9,N,0.0,0.0
1487959075.9,286047066.9,N,0.0,0.0
1487959095.7,286047066.2,N,0.0,0.0
1487959115.6,286047060.5,N,0.0,0.0
1487959135.4,286047058.0,N,0.0,0.0
1487959155.2,286047054.0,N,0.0,0.0
1487959175.1,286047044.9,N,0.0,0.0
1487959176.0,286047044.9,N,0.0,0.0
1487959195.8,286047040.1,N,0.0,0.0
